User: anonymous
Location: Lawrence Hall of Science
(37.8785°N, 122.2415°W)
Time: 18:04:57
(UTC-07:00)
Language:

ARGOS - Orbit

View from above orbital plane
View from above orbital plane
View from above satellite
View from above satellite

Ground track
Ground track

The orbit data is extracted from the following two-line orbital elements,

1 25634U 99008A   14206.08899045  .00000010  00000-0  25952-4 0  2139
2 25634 098.7579 273.1692 0010232 020.8092 038.0133 14.19162155798384
Epoch (UTC): 25 July 2014 02:08:08
Eccentricity: 0.0010232
inclination: 98.7579°
perigee height: 821 km
apogee height: 835 km
right ascension of ascending node: 273.1692°
argument of perigee: 20.8092°
revolutions per day: 14.19162155
mean anomaly at epoch: 38.0133°
orbit number at epoch: 79838

The dashed part of the orbit path shows where the satellite is in the earth's shadow,  

DLR